BAW76MK EGLL-LIRF

Flight info

Callsign BAW76MK
Flight time N/A
Altitude 37000
Route MODMI M185 MID L612 BOGNA UL612 OGULO DCT OKASI DCT OKEKO DCT MOU DCT MADIV DCT MOKIP DCT TUFTA DCT KOGAS DCT MEDAM DCT NITAM DCT MOGBO DCT ELB/N0470F380 DCT ELKAP
Aircraft L101/H-SDFGHIRWXY/S

Departure

Time N/A
Airport London Heathrow Airport (EGLL)

Arrival

Time 2026-05-05 20:55
Airport Rome–Fiumicino Leonardo da Vinci International Airport (LIRF)
Time Latitude Longitude Altitude Speed Heading
2026-05-05 20:01 45.64672 6.55610 36932 ft 464 kts 152°
2026-05-05 20:01 45.61972 6.58154 36932 ft 465 kts 151°
2026-05-05 20:02 45.56639 6.63438 36919 ft 467 kts 150°
2026-05-05 20:02 45.52256 6.67938 36929 ft 467 kts 150°
2026-05-05 20:03 45.46116 6.74246 36934 ft 467 kts 150°
2026-05-05 20:03 45.41722 6.78700 36939 ft 466 kts 150°
2026-05-05 20:04 45.36412 6.84022 36936 ft 466 kts 150°
2026-05-05 20:04 45.31101 6.89318 36951 ft 467 kts 150°
2026-05-05 20:05 45.25787 6.94657 36960 ft 469 kts 148°
2026-05-05 20:05 45.20840 7.00774 36978 ft 474 kts 141°
2026-05-05 20:06 45.16225 7.07522 36972 ft 476 kts 139°
2026-05-05 20:06 45.11655 7.14307 36983 ft 475 kts 141°
2026-05-05 20:07 45.07308 7.21424 36985 ft 482 kts 133°
2026-05-05 20:07 45.03508 7.29224 36989 ft 486 kts 129°
2026-05-05 20:08 44.99845 7.37263 36980 ft 486 kts 129°
2026-05-05 20:08 44.95899 7.44944 36973 ft 478 kts 137°
2026-05-05 20:09 44.91257 7.51570 36968 ft 473 kts 144°
2026-05-05 20:09 44.86339 7.57754 36971 ft 473 kts 144°
2026-05-05 20:10 44.81509 7.63978 36956 ft 474 kts 143°
2026-05-05 20:10 44.76764 7.70465 36960 ft 476 kts 142°
2026-05-05 20:11 44.72076 7.77070 36952 ft 476 kts 142°
2026-05-05 20:11 44.67381 7.83672 36957 ft 477 kts 142°
2026-05-05 20:12 44.62666 7.90213 36971 ft 476 kts 142°
2026-05-05 20:12 44.57928 7.96720 36953 ft 476 kts 143°
2026-05-05 20:13 44.53181 8.03217 36962 ft 477 kts 143°
2026-05-05 20:13 44.48460 8.09673 36961 ft 477 kts 143°
2026-05-05 20:14 44.43708 8.16167 36958 ft 477 kts 143°
2026-05-05 20:14 44.38954 8.22653 36958 ft 477 kts 143°
2026-05-05 20:15 44.34196 8.29125 36958 ft 477 kts 143°
2026-05-05 20:15 44.29437 8.35580 36920 ft 476 kts 143°
2026-05-05 20:16 44.24672 8.42029 36945 ft 477 kts 143°
2026-05-05 20:16 44.19941 8.48417 36950 ft 477 kts 143°
2026-05-05 20:17 44.15172 8.54839 36950 ft 476 kts 143°
2026-05-05 20:17 44.10401 8.61246 36946 ft 476 kts 143°
2026-05-05 20:18 44.05629 8.67643 36945 ft 476 kts 144°
2026-05-05 20:18 44.00848 8.74041 36934 ft 477 kts 144°
2026-05-05 20:19 43.96052 8.80446 36943 ft 478 kts 144°
2026-05-05 20:19 43.91280 8.86802 36946 ft 478 kts 144°
2026-05-05 20:20 43.86464 8.93199 36923 ft 478 kts 144°
2026-05-05 20:20 43.81647 8.99584 36939 ft 480 kts 144°
2026-05-05 20:21 43.76816 9.05975 36939 ft 480 kts 144°
2026-05-05 20:21 43.72002 9.12325 36956 ft 481 kts 144°
2026-05-05 20:22 43.67129 9.18743 36949 ft 484 kts 144°
2026-05-05 20:22 43.62244 9.25164 36955 ft 485 kts 144°
2026-05-05 20:23 43.57340 9.31592 36955 ft 486 kts 144°
2026-05-05 20:23 43.52458 9.37970 36953 ft 486 kts 144°
2026-05-05 20:24 43.47548 9.44369 36954 ft 486 kts 144°
2026-05-05 20:24 43.42635 9.50756 36929 ft 486 kts 144°
2026-05-05 20:25 43.37714 9.57136 36956 ft 485 kts 144°
2026-05-05 20:25 43.32799 9.63494 36957 ft 485 kts 144°
2026-05-05 20:26 43.27883 9.69841 36960 ft 485 kts 144°
2026-05-05 20:26 43.22965 9.76176 36954 ft 485 kts 144°
2026-05-05 20:27 43.18047 9.82495 36950 ft 485 kts 144°
2026-05-05 20:27 43.13117 9.88818 36953 ft 486 kts 144°
2026-05-05 20:28 43.08206 9.95104 36946 ft 487 kts 144°
2026-05-05 20:28 43.03258 10.01422 36958 ft 487 kts 144°
2026-05-05 20:29 42.98298 10.07737 36946 ft 486 kts 144°
2026-05-05 20:29 42.95811 10.10895 36703 ft 491 kts 144°
2026-05-05 20:29 42.93294 10.14085 36041 ft 492 kts 144°
2026-05-05 20:29 42.90801 10.17250 35350 ft 485 kts 144°
2026-05-05 20:30 42.88356 10.20359 34715 ft 477 kts 144°
2026-05-05 20:30 42.85943 10.23426 34070 ft 471 kts 144°
2026-05-05 20:30 42.83559 10.26449 33379 ft 466 kts 145°
2026-05-05 20:30 42.81196 10.29435 32683 ft 461 kts 144°
2026-05-05 20:31 42.78855 10.32384 32008 ft 456 kts 144°
2026-05-05 20:31 42.76536 10.35306 31348 ft 452 kts 142°
2026-05-05 20:31 42.74443 10.38529 30590 ft 459 kts 131°
2026-05-05 20:31 42.72900 10.42361 29864 ft 465 kts 116°
2026-05-05 20:32 42.72019 10.46590 29101 ft 466 kts 103°
2026-05-05 20:32 42.71675 10.50966 28368 ft 465 kts 95°
2026-05-05 20:32 42.71660 10.55346 27633 ft 461 kts 91°
2026-05-05 20:32 42.71781 10.59622 26904 ft 455 kts 90°
2026-05-05 20:33 42.71722 10.63865 26177 ft 444 kts 101°
2026-05-05 20:33 42.71036 10.67883 25491 ft 430 kts 114°
2026-05-05 20:33 42.69775 10.71471 24832 ft 415 kts 126°
2026-05-05 20:33 42.68136 10.74644 24193 ft 404 kts 132°
2026-05-05 20:34 42.66380 10.77596 23547 ft 399 kts 133°
2026-05-05 20:34 42.64679 10.80553 22784 ft 395 kts 130°
2026-05-05 20:34 42.63119 10.83607 22041 ft 391 kts 127°
2026-05-05 20:34 42.61694 10.86735 21317 ft 388 kts 123°
2026-05-05 20:35 42.60545 10.90049 20604 ft 388 kts 114°
2026-05-05 20:35 42.59723 10.93519 19921 ft 386 kts 109°
2026-05-05 20:35 42.59068 10.96991 19200 ft 384 kts 107°
2026-05-05 20:35 42.58487 11.00496 18670 ft 378 kts 105°
2026-05-05 20:36 42.57947 11.03974 18206 ft 376 kts 105°
2026-05-05 20:36 42.57423 11.07443 17677 ft 375 kts 105°
2026-05-05 20:36 42.56907 11.10905 17156 ft 372 kts 104°
2026-05-05 20:36 42.56399 11.14328 16635 ft 370 kts 104°
2026-05-05 20:37 42.55893 11.17738 16126 ft 367 kts 104°
2026-05-05 20:37 42.55585 11.19814 15820 ft 365 kts 104°
2026-05-05 20:37 42.54896 11.24448 15137 ft 361 kts 104°
2026-05-05 20:37 42.54400 11.27775 14661 ft 358 kts 104°
2026-05-05 20:38 42.53906 11.31074 14189 ft 356 kts 104°
2026-05-05 20:38 42.53411 11.34353 13704 ft 352 kts 106°
2026-05-05 20:38 42.52638 11.37419 13164 ft 346 kts 119°
2026-05-05 20:38 42.51427 11.40181 12686 ft 337 kts 129°
2026-05-05 20:39 42.50039 11.42650 12271 ft 321 kts 133°
2026-05-05 20:39 42.48668 11.44970 11864 ft 310 kts 132°
2026-05-05 20:39 42.47387 11.47276 11480 ft 303 kts 129°
2026-05-05 20:39 42.46189 11.49626 11087 ft 304 kts 127°
2026-05-05 20:40 42.45037 11.52021 10677 ft 304 kts 126°
2026-05-05 20:40 42.43907 11.54429 10303 ft 302 kts 126°
2026-05-05 20:40 42.42786 11.56822 9905 ft 300 kts 126°
2026-05-05 20:40 42.41663 11.59190 9503 ft 298 kts 127°
2026-05-05 20:41 42.40549 11.61510 9086 ft 296 kts 127°
2026-05-05 20:41 42.39426 11.63829 8675 ft 293 kts 127°
2026-05-05 20:41 42.38318 11.66109 8447 ft 287 kts 127°
2026-05-05 20:41 42.37220 11.68366 8295 ft 288 kts 127°
2026-05-05 20:42 42.36120 11.70628 8151 ft 287 kts 127°
2026-05-05 20:42 42.35030 11.72874 8012 ft 282 kts 127°
2026-05-05 20:42 42.33990 11.75023 7889 ft 264 kts 127°
2026-05-05 20:42 42.33016 11.77045 7755 ft 249 kts 124°
2026-05-05 20:43 42.32413 11.79233 7582 ft 253 kts 99°
2026-05-05 20:43 42.32493 11.81619 7476 ft 257 kts 81°
2026-05-05 20:43 42.32997 11.83977 7404 ft 263 kts 72°
2026-05-05 20:43 42.33655 11.86263 7319 ft 264 kts 70°
2026-05-05 20:44 42.34331 11.88567 7183 ft 262 kts 75°
2026-05-05 20:44 42.34596 11.90956 7009 ft 255 kts 99°
2026-05-05 20:44 42.34111 11.93183 6888 ft 243 kts 125°
2026-05-05 20:44 42.33013 11.94847 6776 ft 235 kts 148°
2026-05-05 20:45 42.30050 11.96611 6589 ft 234 kts 167°
2026-05-05 20:45 42.28478 11.97167 6462 ft 233 kts 168°
2026-05-05 20:45 42.26910 11.97703 6340 ft 232 kts 168°
2026-05-05 20:46 42.25368 11.98269 6219 ft 232 kts 167°
2026-05-05 20:46 42.23815 11.98885 6081 ft 232 kts 166°
2026-05-05 20:46 42.22266 11.99530 5868 ft 233 kts 165°
2026-05-05 20:46 42.20726 12.00187 5635 ft 230 kts 165°
2026-05-05 20:47 42.19209 12.00840 5474 ft 228 kts 164°
2026-05-05 20:47 42.17717 12.01483 5342 ft 228 kts 164°
2026-05-05 20:47 42.16208 12.02131 5198 ft 227 kts 164°
2026-05-05 20:47 42.14702 12.02775 5050 ft 227 kts 165°
2026-05-05 20:48 42.13197 12.03416 4908 ft 226 kts 165°
2026-05-05 20:48 42.11720 12.04125 4735 ft 227 kts 154°
2026-05-05 20:48 42.10453 12.05396 4567 ft 228 kts 139°
2026-05-05 20:48 42.09378 12.06988 4407 ft 230 kts 133°
2026-05-05 20:49 42.08388 12.08648 4277 ft 230 kts 132°
2026-05-05 20:49 42.07388 12.10316 4133 ft 229 kts 133°
2026-05-05 20:49 42.06364 12.11944 4000 ft 226 kts 134°
2026-05-05 20:49 42.05330 12.13528 3877 ft 225 kts 134°
2026-05-05 20:50 42.04317 12.15136 3757 ft 225 kts 133°
2026-05-05 20:50 42.03653 12.16209 3623 ft 226 kts 133°
2026-05-05 20:50 42.02690 12.17784 3463 ft 208 kts 133°
2026-05-05 20:50 42.01668 12.19039 3036 ft 195 kts 155°
2026-05-05 20:51 42.00417 12.19591 2739 ft 183 kts 167°
2026-05-05 20:51 41.99229 12.19994 2597 ft 167 kts 165°
2026-05-05 20:51 41.97762 12.20596 2743 ft 166 kts 163°
2026-05-05 20:51 41.97018 12.20912 2839 ft 165 kts 164°
2026-05-05 20:52 41.95913 12.21378 2681 ft 167 kts 164°
2026-05-05 20:52 41.94822 12.21842 2409 ft 159 kts 165°
2026-05-05 20:52 41.93795 12.22277 2049 ft 151 kts 165°
2026-05-05 20:52 41.92855 12.22668 1764 ft 137 kts 165°
2026-05-05 20:53 41.91933 12.23055 1591 ft 142 kts 163°
2026-05-05 20:53 41.90962 12.23468 1434 ft 150 kts 164°
2026-05-05 20:53 41.89969 12.23886 1189 ft 149 kts 163°
2026-05-05 20:53 41.88978 12.24298 956 ft 149 kts 163°
2026-05-05 20:54 41.87980 12.24717 657 ft 151 kts 162°
2026-05-05 20:54 41.86998 12.25134 476 ft 143 kts 162°
2026-05-05 20:54 41.86083 12.25523 318 ft 135 kts 162°
2026-05-05 20:54 41.85192 12.25895 214 ft 134 kts 161°
2026-05-05 20:55 41.84294 12.26274 40 ft 136 kts 161°
2026-05-05 20:55 41.83513 12.26603 22 ft 93 kts 161°
2026-05-05 20:55 41.83027 12.26810 17 ft 57 kts 161°
2026-05-05 20:55 41.82784 12.26870 18 ft 33 kts 182°
2026-05-05 20:56 41.82554 12.26820 15 ft 34 kts 194°
2026-05-05 20:56 41.82316 12.26786 18 ft 35 kts 166°
2026-05-05 20:56 41.82086 12.26881 16 ft 36 kts 161°
2026-05-05 20:56 41.81848 12.26978 16 ft 36 kts 163°
2026-05-05 20:57 41.81607 12.27080 18 ft 37 kts 162°
2026-05-05 20:57 41.81361 12.27190 18 ft 38 kts 161°
2026-05-05 20:57 41.81108 12.27287 18 ft 38 kts 162°
2026-05-05 20:57 41.80853 12.27336 19 ft 37 kts 191°
2026-05-05 20:58 41.80643 12.27187 19 ft 35 kts 251°
2026-05-05 20:58 41.80562 12.26875 21 ft 36 kts 248°
2026-05-05 20:58 41.80472 12.26564 24 ft 36 kts 249°
2026-05-05 20:58 41.80391 12.26375 24 ft 21 kts 193°
2026-05-05 20:59 41.80243 12.26409 22 ft 22 kts 179°
2026-05-05 20:59 41.80096 12.26332 21 ft 24 kts 206°
2026-05-05 20:59 41.79999 12.26269 20 ft 0 kts 204°
2026-05-05 20:59 41.79989 12.26263 21 ft 4 kts 204°
2026-05-05 21:00 41.79951 12.26240 20 ft 8 kts 204°
2026-05-05 21:00 41.79885 12.26201 21 ft 12 kts 204°
2026-05-05 21:00 41.79797 12.26148 20 ft 15 kts 206°
2026-05-05 21:00 41.79713 12.26086 22 ft 12 kts 205°
2026-05-05 21:01 41.79694 12.26017 20 ft 6 kts 288°
2026-05-05 21:01 41.79701 12.25994 22 ft 0 kts 291°
2026-05-05 21:01 41.79701 12.25993 22 ft 0 kts 292°